Zurück zum Katalog

STARLINK-5339

AktivKommunikationVLEO
NORAD 56510·PAYLOAD·🇺🇸 United States

Gestartet May 14, 2023 von Cape Canaveral Space Force Station

Loading…

Nächste Überflüge (nächste 24 Stunden)

TLE

AktuellSource: CelesTrak SupGP

Epoche: Sep 15, 2026, 02:29 UTC

1 56510C 23065H   26258.10395833 -.00022429  00000+0 -81246-3 0  2580
2 56510  42.9996 222.4439 0001381 262.9169  42.0420 15.27585853    14

Verfolge STARLINK-5339 in Echtzeit mit AllMySat

Download on the App Store